Location: Boleita
(10.4833°N, 66.8167°W)
Time: 01:21:41
(UTC+00:00)

Cosmos 2056 Rocket - Pass Details

Date: 08 November 2025
Orbit: 739 x 795 km, 74.0° (Epoch: 08 December)

Event Time Altitude Azimuth Distance (km) Brightness Sun altitude
Rises 09:27:06 0° 188° (S) 3,252 6.8 -13.4°
Reaches altitude 10° 09:29:29 10° 186° (S) 2,332 6.1 -12.8°
Maximum altitude 09:34:46 72° 102° (ESE) 829 3.9 -11.6°
Drops below altitude 10° 09:40:07 10° 18° (NNE) 2,354 6.1 -10.3°
Sets 09:42:31 0° 17° (NNE) 3,285 6.8 -9.7°
